Theta_e
309 306 303 306 307 308 307 305 307 313 320 318 317 317 326 329 329 328 328 328 328 333 338 338 339 340 340 339 339 342 342 343 344 342 340 340 341 343 343 345 346 346 345 344
305 302 309 312 311 309 306 306 307 312 318 317 313 315 325 327 328 329 326 327 331 333 334 335 336 337 339 340 340 340 340 341 342 345 344 344 343 345 346 348 349 350 349 348
302 307 313 311 309 308 304 303 307 308 315 314 314 311 319 325 328 328 329 331 332 332 333 336 336 336 336 339 341 340 339 341 343 344 346 348 346 347 346 345 348 351 351 350
303 309 310 307 307 307 301 310 311 311 308 303 311 299 311 316 319 324 328 330 331 335 337 338 337 337 334 336 341 343 343 344 345 347 346 345 343 342 348 350 353 350 349 350
303 303 303 304 307 310 306 312 310 312 303 299 302 302 306 311 312 321 327 330 332 335 338 336 339 338 338 343 341 344 345 346 348 349 349 345 346 350 351 350 349 349 348 351
302 306 305 304 308 308 311 308 304 301 298 293 299 302 301 307 313 319 327 330 329 332 334 331 333 336 338 346 342 347 349 352 347 348 350 348 353 350 347 346 345 345 345 347
299 302 304 307 303 304 304 297 293 294 293 292 300 300 304 311 316 320 327 329 325 327 329 330 330 330 339 338 341 348 351 352 355 348 351 352 353 348 346 345 343 344 343 342
293 294 302 305 303 301 299 300 295 290 290 293 303 297 306 317 322 325 328 327 327 327 330 329 331 334 338 332 333 333 329 332 351 351 348 349 349 347 344 344 343 344 344 345
291 294 303 305 305 306 300 299 300 294 293 296 300 306 315 321 323 325 325 327 327 328 329 330 337 337 337 333 332 333 334 334 339 341 342 339 341 339 338 339 340 340 339 342
296 293 300 303 304 304 304 306 299 296 292 292 300 301 302 314 320 323 323 325 328 330 331 333 338 337 337 333 332 333 336 337 339 337 338 337 336 336 336 334 333 332 333 336
296 295 298 299 297 298 298 299 297 298 297 295 294 300 310 316 321 321 324 326 326 334 335 338 335 330 332 332 332 330 336 339 336 335 333 332 331 330 329 328 328 329 329 331
298 294 294 297 300 303 302 301 300 296 293 297 297 299 315 319 322 322 324 324 331 333 333 333 332 334 333 334 337 336 335 334 333 330 328 326 325 324 323 323 324 324 324 325
298 291 290 295 296 299 300 301 297 301 299 298 297 300 315 318 322 324 325 324 329 330 330 330 329 327 328 329 329 330 331 329 328 326 322 321 320 319 318 319 319 319 318 318
308 291 293 292 293 300 301 303 302 300 296 297 301 304 311 316 319 322 321 324 327 329 327 326 325 324 325 325 326 327 326 324 322 320 319 317 316 316 316 316 317 317 317 316
300 294 294 296 298 306 305 305 304 301 300 301 304 306 312 316 318 322 327 330 327 328 326 325 322 322 323 323 322 321 319 319 318 316 315 314 314 315 315 315 316 316 316 316
297 296 301 301 306 307 304 305 304 305 306 306 307 308 315 317 321 320 326 329 326 327 327 327 324 324 323 322 319 317 316 315 315 313 312 313 314 314 314 316 315 315 315 314
296 301 298 297 303 303 299 305 305 308 308 308 304 308 314 316 321 321 324 329 327 327 327 322 321 319 319 318 317 314 314 313 312 311 312 313 313 314 319 318 316 314 314 314
296 297 296 295 299 293 302 309 312 311 314 312 315 316 316 319 320 321 325 328 327 327 322 319 318 317 315 315 314 313 312 311 310 310 311 313 313 316 317 315 314 311 312 311
299 298 296 297 295 300 307 308 310 309 311 318 318 324 326 325 323 320 329 328 325 320 318 318 318 315 314 314 312 311 310 310 310 310 310 312 312 311 311 311 308 307 307 307
297 296 298 297 296 295 303 310 316 316 308 321 324 325 323 323 313 315 324 321 319 319 318 315 312 314 314 312 311 309 308 308 308 310 311 311 311 309 308 308 307 305 305 305
293 295 297 298 297 302 309 314 315 302 305 324 326 326 324 319 318 318 318 318 320 316 313 312 312 313 312 311 310 308 307 307 309 314 314 312 311 309 307 306 306 305 304 303
293 295 296 299 297 296 314 313 310 313 317 327 327 326 323 316 317 316 316 316 314 311 311 311 310 311 312 311 310 307 307 309 309 310 310 309 309 311 309 305 305 305 304 302
301 300 300 303 303 308 312 312 313 319 325 326 325 323 319 317 315 315 313 312 311 310 308 308 308 308 310 311 310 307 308 308 308 308 307 306 308 309 307 306 305 304 303 302
308 310 305 304 309 310 314 315 317 321 321 325 323 320 319 315 313 310 308 307 307 307 306 306 308 309 309 309 310 309 309 309 307 306 305 305 304 305 304 305 305 304 303 302
309 310 307 306 310 314 317 319 322 322 322 321 322 320 318 314 309 307 305 305 305 305 305 305 305 305 305 305 305 306 307 307 306 305 305 304 303 303 304 304 304 305 305 305
311 308 304 304 310 309 313 320 323 321 321 321 319 317 317 312 308 306 304 305 305 303 303 303 303 305 305 304 303 304 305 305 302 301 302 303 303 301 302 303 304 305 306 305
Wind_Speed
4 5 6 8 6 4 2 4 7 9 8 9 15 7 20 17 14 12 11 10 11 19 18 9 9 9 7 7 9 11 10 8 6 2 2 2 6 4 3 5 6 5 8 9
5 4 8 2 2 3 2 5 12 8 6 14 8 5 16 18 19 13 10 8 11 5 5 6 8 7 10 12 11 9 10 7 6 5 3 2 3 3 5 4 6 12 10 10
6 8 5 2 6 6 3 4 10 8 5 4 7 3 7 8 4 6 7 10 9 10 9 7 8 10 7 10 12 10 10 8 7 6 2 1 1 2 2 4 4 7 9 10
6 5 5 5 7 5 8 3 10 4 5 5 4 3 7 5 9 10 12 14 15 9 7 12 7 3 11 10 4 5 6 7 6 7 5 5 2 4 4 4 3 5 5 7
8 3 1 5 9 5 12 6 9 13 6 6 1 5 6 5 7 7 14 17 14 1 9 16 9 9 6 7 3 3 4 5 6 6 5 3 5 6 7 3 5 6 5 5
6 1 2 5 3 6 9 7 6 5 4 3 4 5 3 4 9 4 8 10 9 9 10 8 7 5 6 9 5 6 10 7 6 4 4 7 8 6 3 3 3 4 4 4
8 7 4 3 7 2 4 7 4 4 6 6 6 6 7 9 4 2 10 9 9 9 9 7 5 1 5 10 17 4 8 6 7 8 7 6 7 5 4 5 4 6 4 3
6 8 6 3 8 8 5 9 7 6 4 3 5 4 2 5 4 7 8 10 8 3 1 8 4 5 5 8 19 18 23 22 3 6 3 4 6 4 4 4 4 5 5 4
6 7 3 3 2 6 3 3 4 8 4 4 2 1 3 3 3 6 5 10 7 7 8 9 6 5 7 7 14 20 14 19 21 7 9 8 8 9 7 8 6 6 7 7
6 5 5 6 1 3 6 5 4 4 4 2 4 3 6 5 7 6 6 7 9 6 4 5 5 5 5 6 11 16 12 6 14 8 7 6 7 7 5 7 9 8 7 9
7 5 8 2 3 5 4 2 5 7 4 7 4 7 5 9 11 13 9 10 5 6 2 1 5 8 9 12 8 9 14 2 9 4 5 7 6 4 5 7 6 6 6 7
10 7 8 11 6 5 5 9 9 6 5 1 5 6 4 10 10 6 10 5 4 7 5 8 9 9 10 9 10 8 8 5 4 3 3 6 5 7 8 8 7 7 8 8
9 1 3 12 9 3 4 3 5 7 5 6 7 4 3 4 5 5 5 7 7 10 8 10 10 9 9 9 9 8 8 6 2 1 6 6 6 7 6 6 6 6 6 6
11 5 9 9 10 4 4 3 3 7 5 6 6 8 7 10 9 8 5 3 7 9 7 8 7 5 5 6 7 7 6 4 3 7 7 8 7 6 6 6 6 6 6 6
10 9 6 6 6 5 3 5 6 5 8 9 8 10 16 21 16 14 7 6 11 12 9 6 6 6 5 8 7 7 6 7 7 8 8 6 3 5 5 5 6 6 6 6
5 6 5 4 3 4 4 4 4 2 4 7 7 0 8 6 10 8 10 9 10 11 10 8 10 9 9 9 7 7 6 5 4 6 5 5 6 3 2 6 6 6 6 5
3 7 5 5 3 4 2 4 2 4 2 8 7 9 8 7 14 15 13 10 11 9 8 8 9 9 8 8 7 7 6 4 6 6 4 2 3 5 7 7 6 6 6 6
4 2 4 4 3 3 7 2 5 7 1 4 7 8 14 11 5 8 7 8 11 9 9 11 9 8 8 7 7 7 5 6 5 5 5 5 5 6 6 7 7 8 7 7
7 7 5 7 3 4 2 3 9 9 4 6 12 9 9 10 6 5 6 5 6 7 9 10 8 9 8 8 7 7 6 7 7 6 6 6 6 6 6 6 6 6 5 6
6 5 7 3 5 6 8 3 6 5 0 6 8 16 19 11 4 5 7 7 9 12 11 11 9 8 9 6 6 9 7 6 5 3 4 4 4 4 5 4 4 3 3 5
4 4 8 4 3 7 6 6 5 8 9 11 14 19 17 7 5 9 12 10 12 12 13 9 7 8 7 6 6 8 5 4 1 5 5 3 1 1 1 2 3 3 5 5
6 7 5 4 4 3 7 4 11 8 3 19 14 17 12 9 15 16 14 14 14 14 12 9 9 8 6 6 7 5 4 1 2 3 3 2 2 2 0 3 4 4 5 6
1 5 5 9 10 5 8 6 5 7 15 11 16 9 13 17 17 17 13 13 12 12 9 6 9 7 5 5 5 5 2 1 2 0 1 2 2 3 3 3 5 4 4 4
1 5 3 1 4 4 7 4 5 7 8 12 12 19 19 19 17 16 12 11 10 9 8 6 8 8 6 4 4 3 2 1 2 0 1 3 4 5 4 3 3 4 4 4
3 2 2 3 4 7 7 6 12 14 17 18 14 18 20 20 16 16 12 11 10 9 6 6 7 6 6 4 4 3 2 2 1 2 3 5 4 5 6 4 4 4 6 6
4 5 4 6 5 3 5 7 12 19 19 21 23 15 11 18 19 15 11 10 11 10 7 7 6 7 5 4 3 2 1 1 0 3 3 2 3 4 3 4 6 9 14 15
Wind_Direction
354 52 253 241 198 195 256 216 226 230 218 178 208 163 179 189 199 195 192 204 204 202 207 198 204 204 170 180 188 189 199 196 172 152 177 232 247 258 229 238 234 235 237 229
14 232 252 258 267 291 5 312 290 277 181 181 152 212 184 185 205 191 176 192 201 151 156 164 177 203 187 189 197 188 206 190 176 196 197 187 172 235 245 235 229 225 231 236
177 238 22 358 320 356 317 215 283 251 74 39 112 28 170 209 208 180 165 195 199 176 162 174 174 190 188 204 193 204 198 196 193 168 163 146 64 300 276 258 267 229 223 219
235 261 235 284 277 124 294 212 274 205 110 197 119 247 223 178 203 169 171 191 202 173 167 195 192 223 181 205 215 194 230 203 196 160 185 207 190 246 257 257 276 271 250 237
232 177 172 239 236 150 252 258 262 263 149 98 355 98 264 153 185 185 186 196 203 166 25 25 19 9 6 339 268 176 210 219 196 172 182 200 252 250 265 264 291 301 293 255
219 281 183 233 315 200 263 307 41 38 84 62 218 138 340 221 210 189 188 201 85 96 75 28 339 13 343 12 292 181 187 190 175 169 190 214 237 274 319 304 299 300 305 308
333 290 273 186 314 30 105 59 321 3 16 212 308 68 230 288 332 200 168 123 118 134 163 162 192 263 63 25 19 358 335 175 155 170 205 238 260 283 290 313 320 321 331 329
179 314 189 172 188 219 227 155 167 188 201 240 326 46 265 299 354 77 113 129 145 130 317 233 226 87 103 77 64 41 18 359 328 97 81 10 356 14 7 20 359 0 349 334
153 263 283 169 240 133 277 204 203 107 21 80 277 91 34 329 50 33 75 112 152 184 219 246 19 65 111 140 95 66 2 340 331 18 63 44 38 43 34 33 31 18 3 10
224 292 237 276 146 289 164 168 52 354 131 134 300 211 210 199 147 164 187 169 195 176 260 286 250 112 69 74 95 111 151 291 307 12 31 49 50 37 19 41 31 10 2 2
147 136 262 172 194 222 339 6 30 113 105 148 165 259 186 179 186 186 193 197 112 113 211 7 56 64 80 81 76 88 169 139 282 3 24 53 45 21 29 39 24 5 358 11
193 160 241 234 242 240 197 211 165 132 218 98 143 264 148 181 183 166 193 159 124 76 47 75 82 67 67 85 101 88 80 178 219 62 53 51 40 34 39 33 20 11 16 15
172 256 285 309 350 356 221 164 132 119 90 186 143 231 220 142 143 222 207 118 94 84 85 76 81 78 91 94 111 128 131 118 115 164 65 53 43 36 30 23 11 11 9 1
131 139 164 210 214 182 313 217 181 120 119 166 216 143 182 173 179 191 208 162 114 97 105 106 105 111 117 121 111 112 111 117 113 76 67 50 32 18 19 8 3 9 3 8
139 195 168 230 226 170 218 251 186 179 166 147 206 184 181 185 175 185 168 153 132 130 136 147 132 131 118 95 78 73 72 62 54 59 52 40 10 16 12 5 8 1 359 357
299 201 136 203 236 216 230 22 114 84 129 76 98 137 114 118 128 150 169 163 148 152 160 150 137 132 123 112 108 100 100 101 99 76 64 31 14 338 4 25 5 2 345 347
136 144 105 215 161 129 12 182 133 117 69 143 148 213 146 156 165 174 168 167 160 160 159 121 129 130 122 121 138 124 110 98 80 75 63 48 17 15 21 17 6 1 351 352
175 86 92 141 92 192 234 210 209 125 77 149 112 146 177 175 115 134 144 154 153 161 121 121 125 121 116 123 118 110 107 94 91 73 48 33 18 26 24 23 10 2 351 348
176 132 85 124 154 264 238 178 151 140 212 212 137 123 110 101 85 69 152 141 137 122 120 128 134 126 132 128 121 113 88 72 62 45 31 23 34 34 27 28 14 358 3 348
77 63 111 122 135 186 227 202 137 96 185 181 144 138 139 153 118 226 157 119 106 108 118 122 118 127 114 108 89 78 74 73 65 37 52 46 54 35 16 15 357 348 350 341
52 25 143 141 134 288 239 209 151 99 226 146 159 153 160 158 182 142 123 102 112 120 119 113 110 114 113 108 102 82 90 92 25 337 16 44 37 359 357 340 322 340 347 347
176 137 163 104 108 194 173 41 164 172 184 153 162 163 140 107 117 117 117 118 122 125 121 120 110 110 116 117 97 103 102 153 5 19 42 2 308 264 43 304 310 339 352 352
198 172 197 170 203 225 175 196 190 137 145 158 148 144 124 133 127 121 123 126 129 124 119 107 113 115 126 131 124 124 157 82 21 146 213 280 296 287 318 291 305 315 322 327
246 42 221 61 264 237 136 64 97 116 119 138 134 139 142 134 129 119 121 120 119 126 123 115 116 115 127 152 156 154 147 63 56 102 262 275 287 293 290 287 279 290 294 295
207 19 321 286 340 66 24 121 117 110 114 109 117 136 140 129 122 124 127 132 134 125 118 131 128 133 149 163 153 150 148 148 120 303 287 277 280 280 287 278 246 270 262 223
178 187 175 227 240 135 188 125 128 124 128 126 122 121 129 133 130 131 130 137 137 141 140 124 130 132 165 173 148 124 94 180 283 311 282 298 295 301 295 289 309 227 246 275